Regional Weather Roundup
Issued by NWS Green Bay, WI

Home | Current Version | Previous Version | Graphics & Text | Print | Product List | Glossary Off
Versions: 1 2 3 4 5 6 7 8 9 10 11 12 13 14 15 16 17 18 19 20 21 22 23 24 25 26 27 28 29 30 31 32 33 34 35 36 37 38 39 40 41 42 43 44 45 46 47 48 49 50

713
ASUS43 KGRB 261611
RWRGRB

NORTH-CENTRAL AND NORTHEAST WISCONSIN REGIONAL WEATHER ROUNDUP
NATIONAL WEATHER SERVICE GREEN BAY WI
1100 AM CDT TUE JUL 26 2016

WIZ005-009-010>012-018-019-261700-
NORTH CENTRAL WISCONSIN

CITY           SKY/WX    TMP DP  RH WIND       PRES   REMARKS
IRONWOOD       SUNNY     81  66  61 SW13      29.96F
MANITOWISH WTR MOSUNNY   80  66  63 SW9G20    30.04S
ARBOR VITAE    SUNNY     81  67  62 W9        30.05F
EAGLE RIVER    SUNNY     80  64  59 SW7       30.05F
LAND O LAKES   SUNNY     81  65  58 W7        30.05F
RHINELANDER    SUNNY     82  66  58 W8        30.07F
PHILLIPS       CLOUDY    79  68  69 W9        30.05S
ANTIGO         SUNNY     80  66  61 CALM      30.08S
TOMAHAWK       SUNNY     80  64  58 SW7       30.07S
MERRILL        SUNNY     82  67  62 NW7       30.07S
$$

WIZ013-073-261700-
NORTHEAST WISCONSIN

CITY           SKY/WX    TMP DP  RH WIND       PRES   REMARKS
IRON MOUNTAIN  SUNNY     83  63  50 SW5       30.01F
MARINETTE      SUNNY    N/A N/A N/A MISG        N/A
OCONTO         SUNNY     82  68  63 SW3       30.02S
$$

WIZ017-030-035>037-045-261700-
CENTRAL WISCONSIN

CITY           SKY/WX    TMP DP  RH WIND       PRES   REMARKS
MEDFORD        MOSUNNY   78  68  70 SW7       30.08S
WAUSAU         SUNNY     82  64  54 W9        30.05F
MOSINEE        SUNNY     82  66  57 SW7       30.08S
MARSHFIELD     SUNNY     82  66  58 SW7       30.08R
WISC RAPIDS    SUNNY     84  64  50 SW9       30.09R
STEVENS POINT  SUNNY     80  65  58 W7        30.08R
WAUPACA        SUNNY     85  62  44 W3        30.06S
SHAWANO        SUNNY     84  68  57 W5        30.06R
CLINTONVILLE   SUNNY     82  63  51 NW6       30.05S
WAUTOMA        SUNNY     82  66  58 VRB3      30.07S
$$

WIZ038-039-048-051-261700-
FOX VALLEY

CITY           SKY/WX    TMP DP  RH WIND       PRES   REMARKS
NWS GREEN BAY  SUNNY     82  71  69 SW7       30.05S
APPLETON       SUNNY     81  64  57 W6        30.05S
OSHKOSH        SUNNY     82  67  60 VRB5      30.06S
FOND DU LAC    SUNNY     83  64  52 CALM      30.07S
$$

WIZ022-050-052-261700-
EAST CENTRAL WISCONSIN

CITY           SKY/WX    TMP DP  RH WIND       PRES   REMARKS
EPHRAIM        FAIR      79  67  68 W5        30.02S
WASHINGTON ISL NOT AVBL
STURGEON BAY   SUNNY     80  66  62 W6        30.04S
MANITOWOC      SUNNY     83  64  52 VRB3      30.05S
SHEBOYGAN      SUNNY     83  61  47 CALM      30.06S
$$

LMZ563-521-522-541>543-261700-
LAKESHORE

STATION/POSITION TIME  TEMP    WIND        PRES    VSBY  WAVE
                       AIR SEA DIR/SP/G                  HT/PER
                 (UTC) (F)     (DEG/KT/KT) (MB)    (MI)  (FT/S)
SHEBOYGAN LKSHOR 1600   76     110/  4/  4 1017.7F
KEWAUNEE LKSHORE 1500   69     160/  4/  5 1016.7F
ALGOMA MARINA    1513          180/  5/  7   N/A
NORTHPORT PIER   1500   81     250/  2/  7 1016.3F
N MID LAKE BUOY  1550   70 70  210/  8/  8 1015.6F         0
S GREEN BAY BUOY 1500   74 74  200/  8/ 10   N/A
SISTER BAY LKSHO 1521   80     290/  7/  7   N/A
CHAMBERS ISLAND  1500   76     200/  5/  8 1016.6F
MENOMINEE LKSHOR 1500   75     160/  5/  7 1015.8F
$$




USA.gov is the U.S. government's official web portal to all federal, state and local government web resources and services.